Weather History for Central Park, NY

Change the Weather History Date:

Thursday, October 10, 2013

  Actual Average Record
Temperature  
Mean Temperature 60 °F 59 °F  
Max Temperature 65 °F 66 °F 91 °F (1939)
Min Temperature 54 °F 52 °F 35 °F (1888)
Degree Days  
Heating Degree Days 5 7  
Month to date heating degree days 16 58  
Since 1 July heating degree days 52 103  
Cooling Degree Days 0 1  
Month to date cooling degree days 43 10  
Year to date cooling degree days 1268 1097  
Growing Degree Days 9 (Base 50)    
Moisture  
Dew Point 49 °F    
Average Humidity 70    
Maximum Humidity 77    
Minimum Humidity 62    
Precipitation  
Precipitation T in 0.16 in 2.16 in (1971)
Month to date precipitation 0.25 1.45  
Year to date precipitation 38.21 38.97  
Snow  
Snow 0.00 in 0.00 in T in (1979)
Month to date snowfall 0.0 0.0  
Since 1 July snowfall 0.0 0.0  
Snow Depth 0.00 in    
Sea Level Pressure  
Sea Level Pressure 30.20 in    
Wind  
Wind Speed 9 mph (ENE)    
Max Wind Speed 16 mph    
Max Gust Speed 25 mph    
Visibility 10 miles    
Events Rain    
T = Trace of Precipitation, MM = Missing Value Source: NWS Daily Summary

Daily Weather History Graph

Daily Weather History Graph

Search for Another Location

Airport:

Trip Planner

Search our weather history database for the weather conditions in past years. The results will help you decide how hot, cold, wet, or windy it might be!

Date:

Astronomy

Oct. 10, 2013 Rise Set
Actual Time 7:01 AM EDT 6:22 PM EDT
Civil Twilight 6:34 AM EDT 6:50 PM EDT
Nautical Twilight 6:02 AM EDT 7:22 PM EDT
Astronomical Twilight 5:30 AM EDT 7:53 PM EDT
Moon 12:52 PM EDT (10/10) 10:56 PM EDT (10/10)
Length of Visible Light 12h 15m
Length of Day
11h 20m
Waxing Crescent, 35% of the Moon is Illuminated
Oct 10
Waxing Crescent
Oct 11
First Quarter
Oct 18
Full
Oct 26
Last Quarter
Nov 3
New

Hourly Weather History & Observations

Time (EDT) Temp. Dew Point Humidity Pressure Visibility Wind Dir Wind Speed Gust Speed Precip Events Conditions
12:51 AM 57.0 °F 45.0 °F 64% 30.28 in 10.0 mi Variable 6.9 mph - N/A   Clear
1:51 AM 55.9 °F 45.0 °F 67% 30.28 in 10.0 mi ENE 10.4 mph - N/A   Clear
2:16 AM 55.9 °F 45.0 °F 67% 30.30 in 10.0 mi Variable 6.9 mph - N/A   Mostly Cloudy
2:40 AM 55.0 °F 45.0 °F 69% 30.29 in 10.0 mi ENE 8.1 mph - N/A   Scattered Clouds
2:51 AM 55.0 °F 45.0 °F 69% 30.26 in 10.0 mi Variable 5.8 mph - N/A   Scattered Clouds
3:03 AM 55.0 °F 46.0 °F 72% 30.29 in 10.0 mi Variable 6.9 mph - N/A   Mostly Cloudy
3:51 AM 55.0 °F 45.0 °F 69% 30.25 in 10.0 mi NE 9.2 mph - N/A   Overcast
4:51 AM 55.0 °F 45.0 °F 69% 30.26 in 10.0 mi ENE 8.1 mph - N/A   Overcast
5:51 AM 54.0 °F 45.0 °F 72% 30.25 in 10.0 mi Variable 5.8 mph - N/A   Overcast
6:51 AM 54.0 °F 45.0 °F 72% 30.25 in 10.0 mi ENE 12.7 mph 17.3 mph N/A   Overcast
7:06 AM 54.0 °F 45.0 °F 72% 30.26 in 10.0 mi ENE 11.5 mph 17.3 mph N/A   Overcast
7:51 AM 54.0 °F 46.0 °F 75% 30.25 in 10.0 mi ENE 8.1 mph 18.4 mph N/A   Overcast
8:01 AM 54.0 °F 46.9 °F 77% 30.27 in 10.0 mi ENE 12.7 mph - 0.00 in Rain Light Rain
8:51 AM 54.0 °F 46.9 °F 77% 30.23 in 10.0 mi ENE 12.7 mph 19.6 mph 0.00 in   Overcast
9:51 AM 55.9 °F 48.9 °F 77% 30.22 in 10.0 mi NE 10.4 mph 18.4 mph N/A   Overcast
10:51 AM 57.0 °F 48.9 °F 74% 30.22 in 10.0 mi ENE 10.4 mph - N/A   Overcast
11:51 AM 59.0 °F 48.9 °F 69% 30.20 in 10.0 mi ENE 10.4 mph 18.4 mph N/A   Overcast
12:51 PM 59.0 °F 50.0 °F 72% 30.19 in 10.0 mi Variable 6.9 mph 18.4 mph N/A   Overcast
1:51 PM 61.0 °F 51.1 °F 70% 30.17 in 10.0 mi ENE 9.2 mph 18.4 mph N/A   Overcast
2:09 PM 62.1 °F 51.1 °F 67% 30.18 in 10.0 mi NE 9.2 mph - N/A   Overcast
2:36 PM 63.0 °F 52.0 °F 67% 30.18 in 10.0 mi East 8.1 mph - N/A   Overcast
2:51 PM 62.1 °F 52.0 °F 70% 30.15 in 10.0 mi ENE 10.4 mph 24.2 mph N/A   Overcast
2:58 PM 62.1 °F 52.0 °F 70% 30.17 in 10.0 mi ENE 13.8 mph 23.0 mph N/A   Overcast
3:51 PM 63.0 °F 53.1 °F 70% 30.14 in 10.0 mi NE 9.2 mph 18.4 mph N/A   Overcast
4:51 PM 64.0 °F 54.0 °F 70% 30.11 in 10.0 mi ENE 6.9 mph - N/A   Overcast
5:51 PM 64.0 °F 54.0 °F 70% 30.11 in 10.0 mi East 4.6 mph - N/A   Overcast
6:51 PM 64.0 °F 53.1 °F 67% 30.12 in 10.0 mi East 10.4 mph 17.3 mph N/A   Overcast
7:51 PM 63.0 °F 52.0 °F 67% 30.12 in 10.0 mi ENE 9.2 mph 19.6 mph N/A   Overcast
8:51 PM 63.0 °F 52.0 °F 67% 30.11 in 10.0 mi ENE 9.2 mph 16.1 mph N/A   Overcast
9:51 PM 62.1 °F 51.1 °F 67% 30.11 in 10.0 mi ENE 9.2 mph - N/A   Mostly Cloudy
10:32 PM 62.1 °F 51.1 °F 67% 30.13 in 10.0 mi ENE 10.4 mph - N/A   Overcast
10:49 PM 62.6 °F 51.8 °F 68% 30.13 in 10.0 mi ENE 10.4 mph - N/A   Overcast
10:51 PM 62.1 °F 51.1 °F 67% 30.11 in 10.0 mi Variable 6.9 mph - N/A   Overcast
11:51 PM 62.1 °F 52.0 °F 70% 30.08 in 10.0 mi ENE 11.5 mph 17.3 mph N/A   Overcast